Regional Weather Roundup
Issued by NWS Sterling, VA

Home | Current Version | Previous Version | Graphics & Text | Print | Product List | Glossary On
Versions: 1 2 3 4 5 6 7 8 9 10 11 12 13 14 15 16 17 18 19 20 21 22 23 24 25 26 27 28 29 30 31 32 33 34 35 36 37 38 39 40 41 42 43 44 45 46 47 48 49 50
432
ASUS41 KLWX 021011
RWRLWX

REGIONAL WEATHER ROUNDUP
NATIONAL WEATHER SERVICE BALTIMORE MD/WASHINGTON DC
600 AM EDT MON MAY 02 2016

Note: "FAIR" indicates few or no clouds below 12,000 feet
with no significant weather and/or obstructions to visibility.
 TC=TEMPERATURE CELSIUS

 * =Non NWS site. Station does not report precipitation (e.g. rain,
    snow, etc.), thunder, or fog.

DCZ001-MDZ009-015-VAZ040>042-051-053>054-021100-
WASHINGTON METRO

CITY           SKY/WX    TMP DP  RH WIND       PRES   REMARKS
WASHINGTON NAT DRIZZLE   55  54  96 N5        29.98R FOG
DULLES         FOG       54  54 100 E7        29.95S VSB 3/4
ANDREWS AFB    FOG       54  54  99 NE5       29.95S VSB 1/4
FT BELVOIR     CLOUDY    55  54  94 CALM      29.96S FOG
QUANTICO       CLOUDY    58  57  97 NE3       29.97R FOG
COLLEGE PARK*  CLOUDY    54  52  94 CALM      29.97R
LEESBURG*      FOG       55  55 100 SE6       29.95F VSB 1/2
MANASSAS*      CLOUDY    55  55 100 CALM      29.95F
GAITHERSBURG*  CLOUDY    54  50  87 SE7       29.99F

$$

MDZ006>007-011-014-021100-
BALTIMORE METRO

CITY           SKY/WX    TMP DP  RH WIND       PRES   REMARKS
BWI AIRPORT    DRZL/FOG  54  53  97 E6        29.97R VSB 3/4
MD SCIENCE CTR   N/A     54  53  97 MISG      29.97R
MARTIN STATE   CLOUDY    54  54 100 CALM      29.99R FOG
ANNAPOLIS      CLOUDY    55  54  96 E5        29.96R FOG
FORT MEADE*    CLOUDY    54  52  94 CALM      30.00R

$$

MDZ012-015-019>023-021100-
MARYLAND EASTERN SHORE

CITY           SKY/WX    TMP DP  RH WIND       PRES   REMARKS
OCEAN CITY     CLOUDY    52  51  97 NE6       29.98R
SALISBURY      CLOUDY    53  53 100 E7        29.96R
CAMBRIDGE*     CLOUDY    54  52  94 CALM      29.95R
EASTON*        CLOUDY   N/A N/A N/A E6        29.99S HAZE

$$

MDZ017>025-021100-
SOUTHERN MARYLAND

CITY           SKY/WX    TMP DP  RH WIND       PRES   REMARKS
PATUXENT RIVER CLOUDY    57  55  93 SE6       29.94S FOG
ST INIGOES     CLOUDY    57  57 100 NE5         N/A  FOG
LEONARDTOWN*   CLOUDY    55  54  94 CALM      29.97R

$$

MDZ003>005-021100-
NORTH CENTRAL MARYLAND

CITY           SKY/WX    TMP DP  RH WIND       PRES   REMARKS
FREDERICK*     CLOUDY    52  52 100 CALM      29.98S FOG
HAGERSTOWN APT FOG       55  53  93 S6        29.93R VSB 1/2
WESTMINSTER*   FOG       52  48  87 SE9       29.94F VSB 1/4

$$

MDZ501>502-021100-
WESTERN MARYLAND

CITY           SKY/WX    TMP DP  RH WIND       PRES   REMARKS
OAKLAND*       CLOUDY    54  52  94 SW10      29.97S
CUMBERLAND*    CLOUDY    55  55 100 SE5       29.95F

$$

VAZ025>031-021100-
SHENANDOAH VALLEY

CITY           SKY/WX    TMP DP  RH WIND       PRES   REMARKS
WINCHESTER*    FOG       55  55 100 CALM      29.94R VSB 1/2
FRONT ROYAL*   CLOUDY    55  55 100 CALM      29.93R VSB 1/4
LURAY*         FOG       57  57 100 S3        29.94S VSB 1/4
NEW MARKET*    CLOUDY    57  57 100 SW3       29.93S
STAUNTON*      FAIR      56  56 100 W3        29.96F
WAYNESBORO*    FAIR      55  54  96 MISG      29.95F

$$

WVZ021-048>050-054>055-021100-
EASTERN WEST VIRGINIA PANHANDLE

CITY           SKY/WX    TMP DP  RH WIND       PRES   REMARKS
MARTINSBURG    CLOUDY    54  54 100 S3        29.93R FOG
PETERSBURG*    CLOUDY    60  59  97 N7        29.95R

$$

VAZ036>039-050-021100-
CENTRAL FOOTHILLS

CITY           SKY/WX    TMP DP  RH WIND       PRES   REMARKS
CHARLOTTESVILL FOG       60  59  96 CALM      29.94F VSB 1/4
CULPEPER*      FOG       57  57 100 CALM      29.96S VSB 1/2
ORANGE*        CLOUDY    59  59 100 CALM      29.97S FOG
GORDONSVILLE*  FOG       59  59 100 CALM      29.94F VSB 3/4
WARRENTON*     CLOUDY    57  53  86 CALM      29.95S FOG

$$

VAZ055>057-021100-
NORTH AND CENTRAL PIEDMONT

CITY           SKY/WX    TMP DP  RH WIND       PRES   REMARKS
FREDERICKSBRG* CLOUDY    58  58 100 CALM      29.95S FOG
STAFFORD*      FOG       56  55  97 CALM      29.99F VSB 1

$$

NCZ024-NYZ072-PAZ021-071-VAZ022-071-021100-
OTHER REGIONAL OBSERVATIONS

CITY           SKY/WX    TMP DP  RH WIND       PRES   REMARKS
NEW YORK CITY  CLOUDY    46  43  89 VRB5      30.04R FOG
PHILADELPHIA   CLOUDY    48  45  89 E8        30.00R
PITTSBURGH     LGT RAIN  54  52  93 SE3       29.86F FOG
ROANOKE        FOG       60  60 100 CALM      29.99S VSB 1/4
RICHMOND       MOCLDY    62  62 100 S3        29.93S
RALEIGH        CLOUDY    67  65  93 SW8       29.98S

$$

ANZ530>537-021100-
MARINE OBSERVATIONS

STATION/POSITION TIME  TEMP    WIND        PRES
                       AIR SEA DIR/SP/G
                 (UTC) (F)     (DEG/KT/KT) (MB)
THOMAS PT LIGHT  1000   55 57   90/  7/  9 1015.7R
BALT KEY BRIDGE  0900   54      90/  8/  9 1014.5R
COVE POINT       0900   56     160/  5/  7 1014.6R
LEWISETTA        0900   58 60  110/ 10/ 11 1012.8F
SOLOMONS ISLAND  0900   57 59  110/  7/  8   N/A
PINEY POINT      0900          100/  8/ 10   N/A

$$





USA.gov is the U.S. government's official web portal to all federal, state and local government web resources and services.